Time,TemperatureF,DewpointF,PressureIn,WindDirection,WindDirectionDegrees,WindSpeedMPH,WindSpeedGustMPH,Humidity,HourlyPrecipIn,Conditions,Clouds,dailyrainin,SolarRadiationWatts/m^2,SoftwareType,DateUTC
2013-09-09 00:03:00,73.3,69.9,29.94,SE,138,0.0,0.0,89,0.00,,,0.00,0,Wunderground v.1.15,2013-09-09 05:03:00,
2013-09-09 00:08:00,73.2,69.8,29.94,SE,138,0.0,0.0,89,0.00,,,0.00,0,Wunderground v.1.15,2013-09-09 05:08:00,
2013-09-09 00:13:00,73.1,70.0,29.94,SE,138,0.0,0.0,90,0.00,,,0.00,0,Wunderground v.1.15,2013-09-09 05:13:00,
2013-09-09 00:18:00,73.1,70.0,29.94,SE,138,0.0,0.0,90,0.00,,,0.00,0,Wunderground v.1.15,2013-09-09 05:18:00,
2013-09-09 00:23:00,73.0,69.9,29.93,SE,138,0.0,0.0,90,0.00,,,0.00,0,Wunderground v.1.15,2013-09-09 05:23:00,
2013-09-09 00:28:00,72.9,70.1,29.93,SE,138,0.0,0.0,91,0.00,,,0.00,0,Wunderground v.1.15,2013-09-09 05:28:00,
2013-09-09 00:34:00,72.8,70.0,29.93,SE,138,0.0,0.0,91,0.00,,,0.00,0,Wunderground v.1.15,2013-09-09 05:34:00,
2013-09-09 00:39:00,72.6,69.8,29.94,SE,138,0.0,0.0,91,0.00,,,0.00,0,Wunderground v.1.15,2013-09-09 05:39:00,
2013-09-09 00:44:00,72.5,69.7,29.93,SE,138,0.0,0.0,91,0.00,,,0.00,0,Wunderground v.1.15,2013-09-09 05:44:00,
2013-09-09 00:49:00,72.3,69.5,29.93,SE,138,0.0,0.0,91,0.00,,,0.00,0,Wunderground v.1.15,2013-09-09 05:49:00,
2013-09-09 00:55:00,72.2,69.7,29.93,SE,138,0.0,0.0,92,0.00,,,0.00,0,Wunderground v.1.15,2013-09-09 05:55:00,
2013-09-09 01:00:00,72.0,69.5,29.93,SE,138,0.0,0.0,92,0.00,,,0.00,0,Wunderground v.1.15,2013-09-09 06:00:00,
2013-09-09 01:06:00,71.9,69.4,29.93,SE,138,0.0,0.0,92,0.00,,,0.00,0,Wunderground v.1.15,2013-09-09 06:06:00,
2013-09-09 01:11:00,71.8,69.3,29.93,SE,138,0.0,0.0,92,0.00,,,0.00,0,Wunderground v.1.15,2013-09-09 06:11:00,
2013-09-09 01:16:00,71.7,69.6,29.93,SE,138,0.0,0.0,93,0.00,,,0.00,0,Wunderground v.1.15,2013-09-09 06:16:00,
2013-09-09 01:21:00,71.6,69.5,29.93,SE,138,0.0,0.0,93,0.00,,,0.00,0,Wunderground v.1.15,2013-09-09 06:21:00,
2013-09-09 01:26:00,71.4,69.3,29.93,SE,138,0.0,0.0,93,0.00,,,0.00,0,Wunderground v.1.15,2013-09-09 06:26:00,
2013-09-09 01:31:00,71.3,69.2,29.93,SE,138,0.0,0.0,93,0.00,,,0.00,0,Wunderground v.1.15,2013-09-09 06:31:00,
2013-09-09 01:37:00,71.3,69.2,29.93,SE,138,0.0,0.0,93,0.00,,,0.00,0,Wunderground v.1.15,2013-09-09 06:37:00,
2013-09-09 01:42:00,71.2,69.4,29.93,SE,138,0.0,0.0,94,0.00,,,0.00,0,Wunderground v.1.15,2013-09-09 06:42:00,
2013-09-09 01:47:00,71.1,69.3,29.93,SE,138,0.0,0.0,94,0.00,,,0.00,0,Wunderground v.1.15,2013-09-09 06:47:00,
2013-09-09 01:52:00,71.0,69.2,29.93,SE,138,0.0,0.0,94,0.00,,,0.00,0,Wunderground v.1.15,2013-09-09 06:52:00,
2013-09-09 01:57:00,70.9,69.1,29.93,SE,138,0.0,0.0,94,0.00,,,0.00,0,Wunderground v.1.15,2013-09-09 06:57:00,
2013-09-09 02:02:00,70.8,69.0,29.93,SE,138,0.0,0.0,94,0.00,,,0.00,0,Wunderground v.1.15,2013-09-09 07:02:00,
2013-09-09 02:08:00,70.6,68.8,29.93,SE,138,0.0,0.0,94,0.00,,,0.00,0,Wunderground v.1.15,2013-09-09 07:08:00,
2013-09-09 02:13:00,70.5,68.7,29.93,SE,138,0.0,0.0,94,0.00,,,0.00,0,Wunderground v.1.15,2013-09-09 07:13:00,
2013-09-09 02:18:00,70.4,68.6,29.93,SE,138,0.0,0.0,94,0.00,,,0.00,0,Wunderground v.1.15,2013-09-09 07:18:00,
2013-09-09 02:24:00,70.3,68.8,29.93,SE,138,0.0,0.0,95,0.00,,,0.00,0,Wunderground v.1.15,2013-09-09 07:24:00,
2013-09-09 02:29:00,70.2,68.7,29.92,SE,138,0.0,0.0,95,0.00,,,0.00,0,Wunderground v.1.15,2013-09-09 07:29:00,
2013-09-09 02:35:00,70.1,68.6,29.92,SE,138,0.0,0.0,95,0.00,,,0.00,0,Wunderground v.1.15,2013-09-09 07:35:00,
2013-09-09 02:40:00,70.1,68.6,29.92,SE,138,0.0,0.0,95,0.00,,,0.00,0,Wunderground v.1.15,2013-09-09 07:40:00,
2013-09-09 02:45:00,70.0,68.5,29.92,SE,138,0.0,0.0,95,0.00,,,0.00,0,Wunderground v.1.15,2013-09-09 07:45:00,
2013-09-09 02:50:00,69.9,68.4,29.92,SE,138,0.0,0.0,95,0.00,,,0.00,0,Wunderground v.1.15,2013-09-09 07:50:00,
2013-09-09 02:55:00,69.8,68.3,29.92,SE,138,0.0,0.0,95,0.00,,,0.00,0,Wunderground v.1.15,2013-09-09 07:55:00,
2013-09-09 03:01:00,69.7,68.2,29.92,SE,138,0.0,0.0,95,0.00,,,0.00,0,Wunderground v.1.15,2013-09-09 08:01:00,
2013-09-09 03:06:00,69.7,68.5,29.92,SE,138,0.0,0.0,96,0.00,,,0.00,0,Wunderground v.1.15,2013-09-09 08:06:00,
2013-09-09 03:11:00,69.6,68.4,29.92,SE,138,0.0,0.0,96,0.00,,,0.00,0,Wunderground v.1.15,2013-09-09 08:11:00,
2013-09-09 03:16:00,69.6,68.4,29.92,SE,138,0.0,0.0,96,0.00,,,0.00,0,Wunderground v.1.15,2013-09-09 08:16:00,
2013-09-09 03:21:00,69.5,68.3,29.92,SE,138,0.0,0.0,96,0.00,,,0.00,0,Wunderground v.1.15,2013-09-09 08:21:00,
2013-09-09 03:26:00,69.5,68.3,29.92,SE,138,0.0,0.0,96,0.00,,,0.00,0,Wunderground v.1.15,2013-09-09 08:26:00,
2013-09-09 03:31:00,69.4,68.2,29.92,SE,138,0.0,0.0,96,0.00,,,0.00,0,Wunderground v.1.15,2013-09-09 08:31:00,
2013-09-09 03:36:00,69.3,68.1,29.93,SE,138,0.0,0.0,96,0.00,,,0.00,0,Wunderground v.1.15,2013-09-09 08:36:00,
2013-09-09 03:42:00,69.2,68.0,29.93,SE,138,0.0,0.0,96,0.00,,,0.00,0,Wunderground v.1.15,2013-09-09 08:42:00,
2013-09-09 03:48:00,69.2,68.0,29.93,SE,138,0.0,0.0,96,0.00,,,0.00,0,Wunderground v.1.15,2013-09-09 08:48:00,
2013-09-09 03:53:00,69.1,67.9,29.94,SE,138,0.0,0.0,96,0.00,,,0.00,0,Wunderground v.1.15,2013-09-09 08:53:00,
2013-09-09 03:58:00,69.1,67.9,29.94,SE,138,0.0,0.0,96,0.00,,,0.00,0,Wunderground v.1.15,2013-09-09 08:58:00,
2013-09-09 04:04:00,69.1,67.9,29.94,SE,138,0.0,0.0,96,0.00,,,0.00,0,Wunderground v.1.15,2013-09-09 09:04:00,
2013-09-09 04:09:00,69.0,67.8,29.94,SE,138,0.0,0.0,96,0.00,,,0.00,0,Wunderground v.1.15,2013-09-09 09:09:00,
2013-09-09 04:14:00,69.0,67.8,29.94,SE,138,0.0,0.0,96,0.00,,,0.00,0,Wunderground v.1.15,2013-09-09 09:14:00,
2013-09-09 04:19:00,69.0,68.1,29.94,SE,138,0.0,0.0,97,0.00,,,0.00,0,Wunderground v.1.15,2013-09-09 09:19:00,
2013-09-09 04:24:00,69.0,68.1,29.94,SE,138,0.0,0.0,97,0.00,,,0.00,0,Wunderground v.1.15,2013-09-09 09:24:00,
2013-09-09 04:29:00,68.9,67.7,29.94,SE,138,0.0,0.0,96,0.00,,,0.00,0,Wunderground v.1.15,2013-09-09 09:29:00,
2013-09-09 04:34:00,68.9,67.7,29.94,SE,138,0.0,0.0,96,0.00,,,0.00,0,Wunderground v.1.15,2013-09-09 09:34:00,
2013-09-09 04:40:00,68.8,67.6,29.94,SE,138,0.0,0.0,96,0.00,,,0.00,0,Wunderground v.1.15,2013-09-09 09:40:00,
2013-09-09 04:45:00,68.8,67.6,29.95,SE,138,0.0,0.0,96,0.00,,,0.00,0,Wunderground v.1.15,2013-09-09 09:45:00,
2013-09-09 04:50:00,68.8,67.9,29.95,SE,138,0.0,0.0,97,0.00,,,0.00,0,Wunderground v.1.15,2013-09-09 09:50:00,
2013-09-09 04:55:00,68.8,67.9,29.95,SE,138,0.0,0.0,97,0.00,,,0.00,0,Wunderground v.1.15,2013-09-09 09:55:00,
2013-09-09 05:01:00,68.7,67.8,29.95,SE,138,0.0,0.0,97,0.00,,,0.00,0,Wunderground v.1.15,2013-09-09 10:01:00,
2013-09-09 05:06:00,68.7,67.8,29.95,SE,138,0.0,0.0,97,0.00,,,0.00,0,Wunderground v.1.15,2013-09-09 10:06:00,
2013-09-09 05:11:00,68.6,67.7,29.96,SE,138,0.0,0.0,97,0.00,,,0.00,0,Wunderground v.1.15,2013-09-09 10:11:00,
2013-09-09 05:16:00,68.6,67.7,29.96,SE,138,0.0,0.0,97,0.00,,,0.00,0,Wunderground v.1.15,2013-09-09 10:16:00,
2013-09-09 05:21:00,68.6,67.7,29.96,SE,138,0.0,0.0,97,0.00,,,0.00,0,Wunderground v.1.15,2013-09-09 10:21:00,
2013-09-09 05:26:00,68.8,67.9,29.96,SE,138,0.0,0.0,97,0.00,,,0.00,0,Wunderground v.1.15,2013-09-09 10:26:00,
2013-09-09 05:31:00,68.9,68.0,29.96,SE,138,0.0,0.0,97,0.00,,,0.00,0,Wunderground v.1.15,2013-09-09 10:31:00,
2013-09-09 05:36:00,69.0,68.1,29.96,SE,138,0.0,0.0,97,0.00,,,0.00,0,Wunderground v.1.15,2013-09-09 10:36:00,
2013-09-09 05:41:00,69.2,68.3,29.96,SE,138,0.0,2.0,97,0.00,,,0.00,0,Wunderground v.1.15,2013-09-09 10:41:00,
2013-09-09 05:46:00,69.2,68.3,29.96,SE,138,0.0,0.0,97,0.00,,,0.00,0,Wunderground v.1.15,2013-09-09 10:46:00,
2013-09-09 05:51:00,69.3,68.4,29.96,SE,138,0.0,0.0,97,0.00,,,0.00,0,Wunderground v.1.15,2013-09-09 10:51:00,
2013-09-09 05:56:00,69.3,68.1,29.96,SE,138,0.0,0.0,96,0.00,,,0.00,0,Wunderground v.1.15,2013-09-09 10:56:00,
2013-09-09 06:01:00,69.4,68.2,29.96,SE,138,0.0,0.0,96,0.00,,,0.00,0,Wunderground v.1.15,2013-09-09 11:01:00,
2013-09-09 06:06:00,69.6,68.4,29.97,SE,138,0.0,1.0,96,0.00,,,0.00,0,Wunderground v.1.15,2013-09-09 11:06:00,
2013-09-09 06:11:00,69.7,68.5,29.97,SE,138,0.0,1.0,96,0.00,,,0.00,0,Wunderground v.1.15,2013-09-09 11:11:00,
2013-09-09 06:16:00,69.8,68.6,29.97,SE,138,0.0,0.0,96,0.00,,,0.00,0,Wunderground v.1.15,2013-09-09 11:16:00,
2013-09-09 06:21:00,69.7,68.2,29.97,SE,138,0.0,0.0,95,0.00,,,0.00,0,Wunderground v.1.15,2013-09-09 11:21:00,
2013-09-09 06:26:00,69.7,68.5,29.97,SE,138,0.0,0.0,96,0.00,,,0.00,0,Wunderground v.1.15,2013-09-09 11:26:00,
2013-09-09 06:31:00,69.6,68.4,29.97,SE,138,0.0,0.0,96,0.00,,,0.00,0,Wunderground v.1.15,2013-09-09 11:31:00,
2013-09-09 06:36:00,69.5,68.0,29.97,SE,138,0.0,0.0,95,0.00,,,0.00,0,Wunderground v.1.15,2013-09-09 11:36:00,
2013-09-09 06:41:00,69.5,68.3,29.97,SE,138,0.0,0.0,96,0.00,,,0.00,0,Wunderground v.1.15,2013-09-09 11:41:00,
2013-09-09 06:46:00,69.5,68.3,29.97,SE,138,0.0,0.0,96,0.00,,,0.00,5,Wunderground v.1.15,2013-09-09 11:46:00,
2013-09-09 06:51:00,69.5,68.3,29.98,SE,138,0.0,0.0,96,0.00,,,0.00,9,Wunderground v.1.15,2013-09-09 11:51:00,
2013-09-09 06:57:00,69.4,67.9,29.98,SE,138,0.0,0.0,95,0.00,,,0.00,12,Wunderground v.1.15,2013-09-09 11:57:00,
2013-09-09 07:02:00,69.3,67.8,29.98,SE,138,0.0,0.0,95,0.00,,,0.00,18,Wunderground v.1.15,2013-09-09 12:02:00,
2013-09-09 07:07:00,69.3,68.1,29.98,SE,138,0.0,0.0,96,0.00,,,0.00,23,Wunderground v.1.15,2013-09-09 12:07:00,
2013-09-09 07:12:00,69.2,68.0,29.99,SE,138,0.0,0.0,96,0.00,,,0.00,26,Wunderground v.1.15,2013-09-09 12:12:00,
2013-09-09 07:17:00,69.2,68.0,29.99,SE,138,0.0,0.0,96,0.00,,,0.00,32,Wunderground v.1.15,2013-09-09 12:17:00,
2013-09-09 07:22:00,69.2,68.0,29.99,SE,138,0.0,0.0,96,0.00,,,0.00,35,Wunderground v.1.15,2013-09-09 12:22:00,
2013-09-09 07:27:00,69.2,68.0,29.99,SE,138,0.0,0.0,96,0.00,,,0.00,39,Wunderground v.1.15,2013-09-09 12:27:00,
2013-09-09 07:32:00,69.3,68.1,29.99,SE,138,0.0,0.0,96,0.00,,,0.00,42,Wunderground v.1.15,2013-09-09 12:32:00,
2013-09-09 07:37:00,69.4,68.2,29.99,SE,138,0.0,0.0,96,0.00,,,0.00,47,Wunderground v.1.15,2013-09-09 12:37:00,
2013-09-09 07:42:00,69.6,68.4,29.99,SE,138,0.0,0.0,96,0.00,,,0.00,111,Wunderground v.1.15,2013-09-09 12:42:00,
2013-09-09 07:47:00,69.9,69.0,29.99,SE,138,0.0,0.0,97,0.00,,,0.00,125,Wunderground v.1.15,2013-09-09 12:47:00,
2013-09-09 07:52:00,70.4,69.5,29.99,SE,138,0.0,0.0,97,0.00,,,0.00,141,Wunderground v.1.15,2013-09-09 12:52:00,
2013-09-09 07:57:00,70.8,69.6,29.99,SE,138,0.0,0.0,96,0.00,,,0.00,156,Wunderground v.1.15,2013-09-09 12:57:00,
2013-09-09 08:02:00,71.1,69.6,29.99,SE,138,0.0,0.0,95,0.00,,,0.00,171,Wunderground v.1.15,2013-09-09 13:02:00,
2013-09-09 08:07:00,71.5,69.7,29.99,SE,138,0.0,0.0,94,0.00,,,0.00,186,Wunderground v.1.15,2013-09-09 13:07:00,
2013-09-09 08:13:00,72.1,70.0,29.99,SE,134,0.0,0.0,93,0.00,,,0.00,206,Wunderground v.1.15,2013-09-09 13:13:00,
2013-09-09 08:18:00,72.9,70.8,29.99,SE,134,0.0,0.0,93,0.00,,,0.00,225,Wunderground v.1.15,2013-09-09 13:18:00,
2013-09-09 08:23:00,73.7,70.6,29.99,SE,138,0.0,0.0,90,0.00,,,0.00,246,Wunderground v.1.15,2013-09-09 13:23:00,
2013-09-09 08:29:00,74.6,71.1,30.00,SE,138,0.0,0.0,89,0.00,,,0.00,267,Wunderground v.1.15,2013-09-09 13:29:00,
2013-09-09 08:35:00,75.4,71.3,30.00,SE,138,0.0,0.0,87,0.00,,,0.00,288,Wunderground v.1.15,2013-09-09 13:35:00,
2013-09-09 08:40:00,75.9,71.8,30.00,SE,138,0.0,0.0,87,0.00,,,0.00,306,Wunderground v.1.15,2013-09-09 13:40:00,
2013-09-09 08:46:00,76.5,71.7,30.00,SE,138,0.0,0.0,85,0.00,,,0.00,323,Wunderground v.1.15,2013-09-09 13:46:00,
2013-09-09 08:52:00,77.2,72.0,30.00,SE,138,0.0,0.0,84,0.00,,,0.00,343,Wunderground v.1.15,2013-09-09 13:52:00,
2013-09-09 08:57:00,77.7,72.1,30.00,SE,138,0.0,0.0,83,0.00,,,0.00,360,Wunderground v.1.15,2013-09-09 13:57:00,
2013-09-09 09:02:00,78.4,72.1,30.01,SE,138,0.0,0.0,81,0.00,,,0.00,378,Wunderground v.1.15,2013-09-09 14:02:00,
2013-09-09 09:08:00,79.3,72.6,30.01,SE,138,0.0,0.0,80,0.00,,,0.00,396,Wunderground v.1.15,2013-09-09 14:08:00,
2013-09-09 09:14:00,79.9,73.2,30.01,SE,138,0.0,0.0,80,0.00,,,0.00,418,Wunderground v.1.15,2013-09-09 14:14:00,
2013-09-09 09:19:00,80.5,73.4,30.01,SE,138,0.0,0.0,79,0.00,,,0.00,434,Wunderground v.1.15,2013-09-09 14:19:00,
2013-09-09 09:25:00,81.3,73.4,30.01,SE,138,0.0,0.0,77,0.00,,,0.00,455,Wunderground v.1.15,2013-09-09 14:25:00,
2013-09-09 09:30:00,81.4,72.7,30.01,SE,138,0.0,0.0,75,0.00,,,0.00,473,Wunderground v.1.15,2013-09-09 14:30:00,
2013-09-09 09:35:00,81.5,72.8,30.01,SE,138,0.0,0.0,75,0.00,,,0.00,489,Wunderground v.1.15,2013-09-09 14:35:00,
2013-09-09 09:40:00,81.7,73.4,30.01,SE,134,0.0,0.0,76,0.00,,,0.00,503,Wunderground v.1.15,2013-09-09 14:40:00,
2013-09-09 09:45:00,81.9,72.8,30.01,ESE,121,0.0,1.0,74,0.00,,,0.00,519,Wunderground v.1.15,2013-09-09 14:45:00,
2013-09-09 09:50:00,82.2,73.1,30.01,ESE,121,0.0,1.0,74,0.00,,,0.00,531,Wunderground v.1.15,2013-09-09 14:50:00,
2013-09-09 09:55:00,82.5,73.0,30.01,ESE,121,0.0,0.0,73,0.00,,,0.00,547,Wunderground v.1.15,2013-09-09 14:55:00,
2013-09-09 10:00:00,82.9,73.4,30.02,ESE,121,0.0,0.0,73,0.00,,,0.00,563,Wunderground v.1.15,2013-09-09 15:00:00,
2013-09-09 10:05:00,83.3,72.5,30.02,ESE,121,0.0,0.0,70,0.00,,,0.00,577,Wunderground v.1.15,2013-09-09 15:05:00,
2013-09-09 10:10:00,83.5,72.3,30.02,ESE,121,0.0,0.0,69,0.00,,,0.00,592,Wunderground v.1.15,2013-09-09 15:10:00,
2013-09-09 10:15:00,83.8,72.5,30.02,ESE,120,0.0,0.0,69,0.00,,,0.00,605,Wunderground v.1.15,2013-09-09 15:15:00,
2013-09-09 10:20:00,84.0,72.3,30.02,ESE,121,0.0,0.0,68,0.00,,,0.00,621,Wunderground v.1.15,2013-09-09 15:20:00,
2013-09-09 10:25:00,84.1,72.4,30.01,ESE,121,0.0,0.0,68,0.00,,,0.00,629,Wunderground v.1.15,2013-09-09 15:25:00,
2013-09-09 10:30:00,84.6,72.4,30.01,ESE,121,0.0,0.0,67,0.00,,,0.00,643,Wunderground v.1.15,2013-09-09 15:30:00,
2013-09-09 10:36:00,84.9,72.3,30.01,ESE,121,0.0,0.0,66,0.00,,,0.00,661,Wunderground v.1.15,2013-09-09 15:36:00,
2013-09-09 10:41:00,85.2,72.1,30.01,ESE,121,0.0,0.0,65,0.00,,,0.00,677,Wunderground v.1.15,2013-09-09 15:41:00,
2013-09-09 10:46:00,85.4,72.3,30.01,East,89,1.0,1.0,65,0.00,,,0.00,689,Wunderground v.1.15,2013-09-09 15:46:00,
2013-09-09 10:51:00,85.6,72.5,30.01,East,89,1.0,1.0,65,0.00,,,0.00,698,Wunderground v.1.15,2013-09-09 15:51:00,
2013-09-09 10:56:00,85.8,72.7,30.01,ENE,78,0.0,4.0,65,0.00,,,0.00,714,Wunderground v.1.15,2013-09-09 15:56:00,
2013-09-09 11:01:00,85.8,72.7,30.01,ENE,78,0.0,4.0,65,0.00,,,0.00,726,Wunderground v.1.15,2013-09-09 16:01:00,
2013-09-09 11:06:00,86.0,72.4,30.01,ESE,111,0.0,0.0,64,0.00,,,0.00,729,Wunderground v.1.15,2013-09-09 16:06:00,
2013-09-09 11:11:00,86.1,72.5,30.01,SE,138,0.0,1.0,64,0.00,,,0.00,738,Wunderground v.1.15,2013-09-09 16:11:00,
2013-09-09 11:16:00,86.5,73.8,30.01,SE,138,0.0,0.0,66,0.00,,,0.00,761,Wunderground v.1.15,2013-09-09 16:16:00,
2013-09-09 11:21:00,86.6,71.5,30.01,SE,138,0.0,0.0,61,0.00,,,0.00,773,Wunderground v.1.15,2013-09-09 16:21:00,
2013-09-09 11:26:00,86.7,71.2,30.01,SE,131,0.0,3.0,60,0.00,,,0.00,791,Wunderground v.1.15,2013-09-09 16:26:00,
2013-09-09 11:31:00,86.8,71.7,30.01,SE,138,0.0,3.0,61,0.00,,,0.00,819,Wunderground v.1.15,2013-09-09 16:31:00,
2013-09-09 11:37:00,86.5,71.9,30.01,SE,126,0.0,1.0,62,0.00,,,0.00,682,Wunderground v.1.15,2013-09-09 16:37:00,
2013-09-09 11:42:00,86.6,72.5,30.01,SE,126,0.0,1.0,63,0.00,,,0.00,823,Wunderground v.1.15,2013-09-09 16:42:00,
2013-09-09 11:47:00,87.3,71.7,30.01,SE,126,0.0,0.0,60,0.00,,,0.00,835,Wunderground v.1.15,2013-09-09 16:47:00,
2013-09-09 11:52:00,87.7,73.5,30.01,SE,126,0.0,1.0,63,0.00,,,0.00,860,Wunderground v.1.15,2013-09-09 16:52:00,
2013-09-09 11:57:00,87.7,72.1,30.00,SE,125,0.0,0.0,60,0.00,,,0.00,814,Wunderground v.1.15,2013-09-09 16:57:00,
2013-09-09 12:02:00,87.9,72.8,30.00,ESE,119,0.0,0.0,61,0.00,,,0.00,840,Wunderground v.1.15,2013-09-09 17:02:00,
2013-09-09 12:07:00,87.9,72.3,30.00,SE,136,0.0,0.0,60,0.00,,,0.00,837,Wunderground v.1.15,2013-09-09 17:07:00,
2013-09-09 12:12:00,87.7,74.0,30.00,ESE,115,1.0,2.0,64,0.00,,,0.00,882,Wunderground v.1.15,2013-09-09 17:12:00,
2013-09-09 12:17:00,87.6,72.0,30.00,ESE,113,0.0,-999.0,60,0.00,,,0.00,868,Wunderground v.1.15,2013-09-09 17:17:00,
2013-09-09 12:22:00,87.8,72.7,30.00,SE,135,0.0,-999.0,61,0.00,,,0.00,877,Wunderground v.1.15,2013-09-09 17:22:00,
2013-09-09 12:27:00,87.8,71.7,30.00,ESE,113,1.0,-999.0,59,0.00,,,0.00,195,Wunderground v.1.15,2013-09-09 17:27:00,
2013-09-09 12:32:00,87.8,72.7,30.00,N/A,-737280,0.0,-999.0,61,0.00,,,0.00,911,Wunderground v.1.15,2013-09-09 17:32:00,
2013-09-09 12:37:00,87.9,71.8,30.00,East,90,2.0,-999.0,59,0.00,,,0.00,923,Wunderground v.1.15,2013-09-09 17:37:00,
2013-09-09 12:42:00,88.1,71.5,30.00,South,180,1.0,-999.0,58,0.00,,,0.00,932,Wunderground v.1.15,2013-09-09 17:42:00,
2013-09-09 12:47:00,88.1,72.5,30.00,SSE,158,0.0,-999.0,60,0.00,,,0.00,250,Wunderground v.1.15,2013-09-09 17:47:00,
2013-09-09 12:52:00,88.1,72.5,30.00,SE,135,2.0,-999.0,60,0.00,,,0.00,805,Wunderground v.1.15,2013-09-09 17:52:00,
2013-09-09 12:57:00,88.3,71.6,30.00,N/A,-737280,0.0,-999.0,58,0.00,,,0.00,940,Wunderground v.1.15,2013-09-09 17:57:00,
2013-09-09 13:02:00,88.7,74.0,30.00,SSW,203,0.0,-999.0,62,0.00,,,0.00,830,Wunderground v.1.15,2013-09-09 18:02:00,
2013-09-09 13:07:00,88.6,71.9,30.00,South,180,0.0,-999.0,58,0.00,,,0.00,160,Wunderground v.1.15,2013-09-09 18:07:00,
2013-09-09 13:12:00,87.9,71.8,29.99,NE,45,0.0,-999.0,59,0.00,,,0.00,206,Wunderground v.1.15,2013-09-09 18:12:00,
2013-09-09 13:17:00,87.8,72.2,29.99,East,90,0.0,-999.0,60,0.00,,,0.00,879,Wunderground v.1.15,2013-09-09 18:17:00,
2013-09-09 13:22:00,88.1,72.5,29.99,East,90,1.0,-999.0,60,0.00,,,0.00,212,Wunderground v.1.15,2013-09-09 18:22:00,
2013-09-09 13:27:00,88.1,73.0,29.99,NNE,23,2.0,-999.0,61,0.00,,,0.00,185,Wunderground v.1.15,2013-09-09 18:27:00,
2013-09-09 13:32:00,87.9,71.3,29.99,SE,135,0.0,-999.0,58,0.00,,,0.00,239,Wunderground v.1.15,2013-09-09 18:32:00,
2013-09-09 13:37:00,87.9,72.8,29.99,ENE,68,0.0,-999.0,61,0.00,,,0.00,255,Wunderground v.1.15,2013-09-09 18:37:00,
2013-09-09 13:42:00,88.1,72.0,29.98,N/A,-737280,0.0,-999.0,59,0.00,,,0.00,308,Wunderground v.1.15,2013-09-09 18:42:00,
2013-09-09 13:47:00,88.3,72.2,29.98,N/A,-737280,0.0,-999.0,59,0.00,,,0.00,156,Wunderground v.1.15,2013-09-09 18:47:00,
2013-09-09 13:52:00,88.2,72.1,29.98,ESE,113,0.0,-999.0,59,0.00,,,0.00,919,Wunderground v.1.15,2013-09-09 18:52:00,
2013-09-09 13:57:00,88.5,71.8,29.98,ESE,113,0.0,-999.0,58,0.00,,,0.00,920,Wunderground v.1.15,2013-09-09 18:57:00,
2013-09-09 14:02:00,88.8,72.1,29.98,SE,135,1.0,-999.0,58,0.00,,,0.00,940,Wunderground v.1.15,2013-09-09 19:02:00,
2013-09-09 14:07:00,89.3,71.0,29.98,N/A,-737280,0.0,-999.0,55,0.00,,,0.00,925,Wunderground v.1.15,2013-09-09 19:07:00,
2013-09-09 14:12:00,89.4,70.0,29.98,SE,135,1.0,-999.0,53,0.00,,,0.00,933,Wunderground v.1.15,2013-09-09 19:12:00,
2013-09-09 14:17:00,89.5,70.1,29.97,SSE,158,0.0,-999.0,53,0.00,,,0.00,865,Wunderground v.1.15,2013-09-09 19:17:00,
2013-09-09 14:22:00,89.6,71.3,29.97,SE,135,1.0,-999.0,55,0.00,,,0.00,846,Wunderground v.1.15,2013-09-09 19:22:00,
2013-09-09 14:27:00,89.6,71.3,29.97,SSW,203,0.0,-999.0,55,0.00,,,0.00,838,Wunderground v.1.15,2013-09-09 19:27:00,
2013-09-09 14:32:00,89.9,71.0,29.97,NE,45,1.0,-999.0,54,0.00,,,0.00,827,Wunderground v.1.15,2013-09-09 19:32:00,
2013-09-09 14:37:00,90.0,71.7,29.97,SSE,158,2.0,-999.0,55,0.00,,,0.00,853,Wunderground v.1.15,2013-09-09 19:37:00,
2013-09-09 14:42:00,89.9,71.0,29.97,South,180,0.0,-999.0,54,0.00,,,0.00,863,Wunderground v.1.15,2013-09-09 19:42:00,
2013-09-09 14:47:00,90.2,71.3,29.97,SW,225,0.0,-999.0,54,0.00,,,0.00,802,Wunderground v.1.15,2013-09-09 19:47:00,
2013-09-09 14:52:00,90.1,71.2,29.96,SE,135,2.0,-999.0,54,0.00,,,0.00,812,Wunderground v.1.15,2013-09-09 19:52:00,
2013-09-09 14:57:00,90.0,70.6,29.96,SSE,158,3.0,-999.0,53,0.00,,,0.00,779,Wunderground v.1.15,2013-09-09 19:57:00,
2013-09-09 15:02:00,90.1,71.8,29.96,South,180,1.0,-999.0,55,0.00,,,0.00,788,Wunderground v.1.15,2013-09-09 20:02:00,
2013-09-09 15:07:00,90.5,72.1,29.95,South,180,1.0,-999.0,55,0.00,,,0.00,758,Wunderground v.1.15,2013-09-09 20:07:00,
2013-09-09 15:12:00,90.2,71.3,29.96,SE,135,3.0,-999.0,54,0.00,,,0.00,148,Wunderground v.1.15,2013-09-09 20:12:00,
2013-09-09 15:17:00,89.3,71.5,29.96,N/A,-737280,0.0,-999.0,56,0.00,,,0.00,183,Wunderground v.1.15,2013-09-09 20:17:00,
2013-09-09 15:22:00,89.0,72.3,29.96,N/A,-737280,0.0,-999.0,58,0.00,,,0.00,714,Wunderground v.1.15,2013-09-09 20:22:00,
2013-09-09 15:27:00,89.4,71.1,29.95,ESE,113,2.0,-999.0,55,0.00,,,0.00,694,Wunderground v.1.15,2013-09-09 20:27:00,
2013-09-09 15:32:00,89.2,70.9,29.95,SE,135,1.0,-999.0,55,0.00,,,0.00,151,Wunderground v.1.15,2013-09-09 20:32:00,
2013-09-09 15:37:00,88.8,73.6,29.95,N/A,-737280,0.0,-999.0,61,0.00,,,0.00,680,Wunderground v.1.15,2013-09-09 20:37:00,
2013-09-09 15:42:00,88.7,71.0,29.95,N/A,-737280,0.0,-999.0,56,0.00,,,0.00,188,Wunderground v.1.15,2013-09-09 20:42:00,
2013-09-09 15:47:00,89.0,71.3,29.95,SE,135,0.0,-999.0,56,0.00,,,0.00,645,Wunderground v.1.15,2013-09-09 20:47:00,
2013-09-09 15:52:00,89.0,71.8,29.95,SE,135,0.0,-999.0,57,0.00,,,0.00,139,Wunderground v.1.15,2013-09-09 20:52:00,
2013-09-09 15:57:00,88.6,71.9,29.95,SE,135,0.0,-999.0,58,0.00,,,0.00,149,Wunderground v.1.15,2013-09-09 20:57:00,
2013-09-09 16:02:00,88.3,72.7,29.95,N/A,-737280,0.0,-999.0,60,0.00,,,0.00,155,Wunderground v.1.15,2013-09-09 21:02:00,
2013-09-09 16:07:00,88.0,70.3,29.95,SE,135,1.0,-999.0,56,0.00,,,0.00,169,Wunderground v.1.15,2013-09-09 21:07:00,
2013-09-09 16:12:00,87.9,70.8,29.95,SE,135,1.0,-999.0,57,0.00,,,0.00,165,Wunderground v.1.15,2013-09-09 21:12:00,
2013-09-09 16:17:00,87.9,72.3,29.95,N/A,-737280,0.0,-999.0,60,0.00,,,0.00,538,Wunderground v.1.15,2013-09-09 21:17:00,
2013-09-09 16:22:00,88.2,71.0,29.95,SE,135,1.0,-999.0,57,0.00,,,0.00,540,Wunderground v.1.15,2013-09-09 21:22:00,
2013-09-09 16:27:00,88.6,71.4,29.95,SSE,158,0.0,-999.0,57,0.00,,,0.00,515,Wunderground v.1.15,2013-09-09 21:27:00,
2013-09-09 16:32:00,89.0,71.8,29.95,SSE,158,0.0,-999.0,57,0.00,,,0.00,485,Wunderground v.1.15,2013-09-09 21:32:00,
2013-09-09 16:37:00,88.9,71.2,29.95,N/A,-737280,0.0,-999.0,56,0.00,,,0.00,107,Wunderground v.1.15,2013-09-09 21:37:00,
2013-09-09 16:42:00,88.5,71.3,29.95,N/A,-737280,0.0,-999.0,57,0.00,,,0.00,100,Wunderground v.1.15,2013-09-09 21:42:00,
2013-09-09 16:47:00,88.3,71.6,29.95,SE,135,0.0,-999.0,58,0.00,,,0.00,121,Wunderground v.1.15,2013-09-09 21:47:00,
2013-09-09 16:52:00,87.9,71.3,29.95,SE,135,0.0,-999.0,58,0.00,,,0.00,434,Wunderground v.1.15,2013-09-09 21:52:00,
2013-09-09 16:57:00,88.0,71.4,29.95,N/A,-737280,0.0,-999.0,58,0.00,,,0.00,401,Wunderground v.1.15,2013-09-09 21:57:00,
2013-09-09 17:02:00,87.9,70.2,29.95,SE,135,0.0,-999.0,56,0.00,,,0.00,90,Wunderground v.1.15,2013-09-09 22:02:00,
2013-09-09 17:07:00,87.8,70.7,29.95,N/A,-737280,0.0,-999.0,57,0.00,,,0.00,93,Wunderground v.1.15,2013-09-09 22:07:00,
2013-09-09 17:12:00,87.8,71.2,29.95,N/A,-737280,0.0,-999.0,58,0.00,,,0.00,350,Wunderground v.1.15,2013-09-09 22:12:00,
2013-09-09 17:17:00,88.1,72.0,29.95,N/A,-737280,0.0,-999.0,59,0.00,,,0.00,330,Wunderground v.1.15,2013-09-09 22:17:00,
2013-09-09 17:22:00,88.6,70.9,29.95,SE,135,0.0,-999.0,56,0.00,,,0.00,320,Wunderground v.1.15,2013-09-09 22:22:00,
2013-09-09 17:27:00,88.8,72.1,29.95,N/A,-737280,0.0,-999.0,58,0.00,,,0.00,292,Wunderground v.1.15,2013-09-09 22:27:00,
2013-09-09 17:32:00,89.3,71.5,29.94,N/A,-737280,0.0,-999.0,56,0.00,,,0.00,276,Wunderground v.1.15,2013-09-09 22:32:00,
2013-09-09 17:37:00,89.3,71.0,29.94,N/A,-737280,0.0,-999.0,55,0.00,,,0.00,248,Wunderground v.1.15,2013-09-09 22:37:00,
2013-09-09 17:42:00,89.1,70.8,29.95,SE,135,0.0,-999.0,55,0.00,,,0.00,258,Wunderground v.1.15,2013-09-09 22:42:00,
2013-09-09 17:47:00,88.9,71.7,29.95,N/A,-737280,0.0,-999.0,57,0.00,,,0.00,221,Wunderground v.1.15,2013-09-09 22:47:00,
2013-09-09 17:52:00,88.6,70.9,29.94,SE,135,0.0,-999.0,56,0.00,,,0.00,192,Wunderground v.1.15,2013-09-09 22:52:00,
2013-09-09 17:57:00,88.3,71.1,29.94,SE,135,0.0,-999.0,57,0.00,,,0.00,178,Wunderground v.1.15,2013-09-09 22:57:00,
2013-09-09 18:02:00,88.1,72.0,29.94,N/A,-737280,0.0,-999.0,59,0.00,,,0.00,169,Wunderground v.1.15,2013-09-09 23:02:00,
2013-09-09 18:07:00,87.8,75.0,29.94,N/A,-737280,0.0,-999.0,66,0.00,,,0.00,149,Wunderground v.1.15,2013-09-09 23:07:00,
2013-09-09 18:12:00,87.6,71.5,29.95,N/A,-737280,0.0,-999.0,59,0.00,,,0.00,128,Wunderground v.1.15,2013-09-09 23:12:00,
2013-09-09 18:17:00,87.5,71.4,29.95,N/A,-737280,0.0,-999.0,59,0.00,,,0.00,111,Wunderground v.1.15,2013-09-09 23:17:00,
2013-09-09 18:22:00,87.2,71.6,29.95,N/A,-737280,0.0,-999.0,60,0.00,,,0.00,91,Wunderground v.1.15,2013-09-09 23:22:00,
2013-09-09 18:27:00,87.1,72.0,29.95,N/A,-737280,0.0,-999.0,61,0.00,,,0.00,77,Wunderground v.1.15,2013-09-09 23:27:00,
2013-09-09 18:32:00,86.8,72.2,29.95,N/A,-737280,0.0,-999.0,62,0.00,,,0.00,62,Wunderground v.1.15,2013-09-09 23:32:00,
2013-09-09 18:37:00,86.5,72.4,29.95,N/A,-737280,0.0,-999.0,63,0.00,,,0.00,40,Wunderground v.1.15,2013-09-09 23:37:00,
2013-09-09 18:42:00,86.2,72.1,29.96,N/A,-737280,0.0,-999.0,63,0.00,,,0.00,35,Wunderground v.1.15,2013-09-09 23:42:00,
2013-09-09 18:47:00,85.8,72.2,29.95,N/A,-737280,0.0,-999.0,64,0.00,,,0.00,30,Wunderground v.1.15,2013-09-09 23:47:00,
2013-09-09 18:52:00,85.5,72.4,29.95,N/A,-737280,0.0,-999.0,65,0.00,,,0.00,25,Wunderground v.1.15,2013-09-09 23:52:00,
2013-09-09 18:57:00,85.2,73.4,29.95,N/A,-737280,0.0,-999.0,68,0.00,,,0.00,12,Wunderground v.1.15,2013-09-09 23:57:00,
2013-09-09 19:02:00,84.8,73.1,29.95,N/A,-737280,0.0,-999.0,68,0.00,,,0.00,10,Wunderground v.1.15,2013-09-10 00:02:00,
2013-09-09 19:07:00,84.4,72.2,29.95,N/A,-737280,0.0,-999.0,67,0.00,,,0.00,8,Wunderground v.1.15,2013-09-10 00:07:00,
2013-09-09 19:12:00,83.9,71.8,29.95,N/A,-737280,0.0,-999.0,67,0.00,,,0.00,5,Wunderground v.1.15,2013-09-10 00:12:00,
2013-09-09 19:17:00,83.5,71.8,29.95,N/A,-737280,0.0,-999.0,68,0.00,,,0.00,0,Wunderground v.1.15,2013-09-10 00:17:00,
2013-09-09 19:22:00,83.1,71.9,29.95,N/A,-737280,0.0,-999.0,69,0.00,,,0.00,0,Wunderground v.1.15,2013-09-10 00:22:00,
2013-09-09 19:27:00,82.7,73.2,29.95,N/A,-737280,0.0,-999.0,73,0.00,,,0.00,0,Wunderground v.1.15,2013-09-10 00:27:00,
2013-09-09 19:32:00,82.4,73.3,29.95,N/A,-737280,0.0,-999.0,74,0.00,,,0.00,0,Wunderground v.1.15,2013-09-10 00:32:00,
2013-09-09 19:37:00,82.0,71.7,29.95,N/A,-737280,0.0,-999.0,71,0.00,,,0.00,0,Wunderground v.1.15,2013-09-10 00:37:00,
2013-09-09 19:42:00,81.7,72.6,29.95,N/A,-737280,0.0,-999.0,74,0.00,,,0.00,0,Wunderground v.1.15,2013-09-10 00:42:00,
2013-09-09 19:47:00,81.4,72.3,29.95,N/A,-737280,0.0,-999.0,74,0.00,,,0.00,0,Wunderground v.1.15,2013-09-10 00:47:00,
2013-09-09 19:52:00,81.0,71.9,29.95,N/A,-737280,0.0,-999.0,74,0.00,,,0.00,0,Wunderground v.1.15,2013-09-10 00:52:00,
2013-09-09 19:57:00,80.7,71.6,29.95,N/A,-737280,0.0,-999.0,74,0.00,,,0.00,0,Wunderground v.1.15,2013-09-10 00:57:00,
2013-09-09 20:02:00,80.4,71.3,29.96,N/A,-737280,0.0,-999.0,74,0.00,,,0.00,0,Wunderground v.1.15,2013-09-10 01:02:00,
2013-09-09 20:07:00,80.2,72.3,29.96,N/A,-737280,0.0,-999.0,77,0.00,,,0.00,0,Wunderground v.1.15,2013-09-10 01:07:00,
2013-09-09 20:12:00,80.0,73.6,29.96,N/A,-737280,0.0,-999.0,81,0.00,,,0.00,0,Wunderground v.1.15,2013-09-10 01:12:00,
2013-09-09 20:17:00,79.9,72.8,29.96,SE,135,0.0,-999.0,79,0.00,,,0.00,0,Wunderground v.1.15,2013-09-10 01:17:00,
2013-09-09 20:22:00,79.8,71.9,29.97,N/A,-737280,0.0,-999.0,77,0.00,,,0.00,0,Wunderground v.1.15,2013-09-10 01:22:00,
2013-09-09 20:27:00,79.8,71.9,29.97,N/A,-737280,0.0,-999.0,77,0.00,,,0.00,0,Wunderground v.1.15,2013-09-10 01:27:00,
2013-09-09 20:32:00,79.8,71.9,29.97,N/A,-737280,0.0,-999.0,77,0.00,,,0.00,0,Wunderground v.1.15,2013-09-10 01:32:00,
2013-09-09 20:37:00,79.8,71.9,29.97,N/A,-737280,0.0,-999.0,77,0.00,,,0.00,0,Wunderground v.1.15,2013-09-10 01:37:00,
2013-09-09 20:42:00,79.7,72.2,29.97,N/A,-737280,0.0,-999.0,78,0.00,,,0.00,0,Wunderground v.1.15,2013-09-10 01:42:00,
2013-09-09 20:47:00,79.6,71.8,29.97,SE,135,0.0,-999.0,77,0.00,,,0.00,0,Wunderground v.1.15,2013-09-10 01:47:00,
2013-09-09 20:52:00,79.5,72.0,29.98,N/A,-737280,0.0,-999.0,78,0.00,,,0.00,0,Wunderground v.1.15,2013-09-10 01:52:00,
2013-09-09 20:57:00,79.4,71.6,29.98,SE,135,1.0,-999.0,77,0.00,,,0.00,0,Wunderground v.1.15,2013-09-10 01:57:00,
2013-09-09 21:02:00,79.3,71.8,29.98,N/A,-737280,0.0,-999.0,78,0.00,,,0.00,0,Wunderground v.1.15,2013-09-10 02:02:00,
2013-09-09 21:07:00,79.2,72.1,29.98,N/A,-737280,0.0,-999.0,79,0.00,,,0.00,0,Wunderground v.1.15,2013-09-10 02:07:00,
2013-09-09 21:12:00,79.0,71.6,29.98,N/A,-737280,0.0,-999.0,78,0.00,,,0.00,0,Wunderground v.1.15,2013-09-10 02:12:00,
2013-09-09 21:17:00,78.8,71.7,29.99,SE,135,0.0,-999.0,79,0.00,,,0.00,0,Wunderground v.1.15,2013-09-10 02:17:00,
2013-09-09 21:22:00,78.7,72.0,29.99,N/A,-737280,0.0,-999.0,80,0.00,,,0.00,0,Wunderground v.1.15,2013-09-10 02:22:00,
2013-09-09 21:27:00,78.6,71.9,29.99,N/A,-737280,0.0,-999.0,80,0.00,,,0.00,0,Wunderground v.1.15,2013-09-10 02:27:00,
2013-09-09 21:32:00,78.3,71.6,29.99,N/A,-737280,0.0,-999.0,80,0.00,,,0.00,0,Wunderground v.1.15,2013-09-10 02:32:00,
2013-09-09 21:37:00,78.1,71.8,29.99,N/A,-737280,0.0,-999.0,81,0.00,,,0.00,0,Wunderground v.1.15,2013-09-10 02:37:00,
2013-09-09 21:42:00,77.8,71.5,29.99,N/A,-737280,0.0,-999.0,81,0.00,,,0.00,0,Wunderground v.1.15,2013-09-10 02:42:00,
2013-09-09 21:47:00,77.6,71.7,29.99,N/A,-737280,0.0,-999.0,82,0.00,,,0.00,0,Wunderground v.1.15,2013-09-10 02:47:00,
2013-09-09 21:52:00,77.4,71.8,29.99,N/A,-737280,0.0,-999.0,83,0.00,,,0.00,0,Wunderground v.1.15,2013-09-10 02:52:00,
2013-09-09 21:57:00,77.2,72.0,29.99,N/A,-737280,0.0,-999.0,84,0.00,,,0.00,0,Wunderground v.1.15,2013-09-10 02:57:00,
2013-09-09 22:02:00,77.0,72.1,29.99,N/A,-737280,0.0,-999.0,85,0.00,,,0.00,0,Wunderground v.1.15,2013-09-10 03:02:00,
2013-09-09 22:07:00,76.7,71.8,29.99,N/A,-737280,0.0,-999.0,85,0.00,,,0.00,0,Wunderground v.1.15,2013-09-10 03:07:00,
2013-09-09 22:12:00,76.6,71.7,29.99,N/A,-737280,0.0,-999.0,85,0.00,,,0.00,0,Wunderground v.1.15,2013-09-10 03:12:00,
2013-09-09 22:17:00,76.4,71.6,30.00,N/A,-737280,0.0,-999.0,85,0.00,,,0.00,0,Wunderground v.1.15,2013-09-10 03:17:00,
2013-09-09 22:22:00,76.2,71.4,29.99,N/A,-737280,0.0,-999.0,85,0.00,,,0.00,0,Wunderground v.1.15,2013-09-10 03:22:00,
2013-09-09 22:27:00,76.1,71.6,29.99,N/A,-737280,0.0,-999.0,86,0.00,,,0.00,0,Wunderground v.1.15,2013-09-10 03:27:00,
2013-09-09 22:32:00,76.0,71.5,30.00,N/A,-737280,0.0,-999.0,86,0.00,,,0.00,0,Wunderground v.1.15,2013-09-10 03:32:00,
2013-09-09 22:37:00,76.0,71.5,30.00,N/A,-737280,0.0,-999.0,86,0.00,,,0.00,0,Wunderground v.1.15,2013-09-10 03:37:00,
2013-09-09 22:42:00,75.9,71.4,29.99,N/A,-737280,0.0,-999.0,86,0.00,,,0.00,0,Wunderground v.1.15,2013-09-10 03:42:00,
2013-09-09 22:47:00,75.9,71.4,29.99,N/A,-737280,0.0,-999.0,86,0.00,,,0.00,0,Wunderground v.1.15,2013-09-10 03:47:00,
2013-09-09 22:52:00,75.8,71.7,29.99,N/A,-737280,0.0,-999.0,87,0.00,,,0.00,0,Wunderground v.1.15,2013-09-10 03:52:00,
2013-09-09 22:57:00,75.8,71.7,29.99,N/A,-737280,0.0,-999.0,87,0.00,,,0.00,0,Wunderground v.1.15,2013-09-10 03:57:00,
2013-09-09 23:02:00,75.7,71.6,29.99,N/A,-737280,0.0,-999.0,87,0.00,,,0.00,0,Wunderground v.1.15,2013-09-10 04:02:00,
2013-09-09 23:07:00,75.6,71.5,29.99,N/A,-737280,0.0,-999.0,87,0.00,,,0.00,0,Wunderground v.1.15,2013-09-10 04:07:00,
2013-09-09 23:12:00,75.6,71.8,29.99,N/A,-737280,0.0,-999.0,88,0.00,,,0.00,0,Wunderground v.1.15,2013-09-10 04:12:00,
2013-09-09 23:17:00,75.5,71.7,29.99,N/A,-737280,0.0,-999.0,88,0.00,,,0.00,0,Wunderground v.1.15,2013-09-10 04:17:00,
2013-09-09 23:22:00,75.4,71.6,30.00,N/A,-737280,0.0,-999.0,88,0.00,,,0.00,0,Wunderground v.1.15,2013-09-10 04:22:00,
2013-09-09 23:27:00,75.3,71.5,29.99,N/A,-737280,0.0,-999.0,88,0.00,,,0.00,0,Wunderground v.1.15,2013-09-10 04:27:00,
2013-09-09 23:32:00,75.2,71.7,29.99,N/A,-737280,0.0,-999.0,89,0.00,,,0.00,0,Wunderground v.1.15,2013-09-10 04:32:00,
2013-09-09 23:37:00,75.2,71.7,29.99,N/A,-737280,0.0,-999.0,89,0.00,,,0.00,0,Wunderground v.1.15,2013-09-10 04:37:00,
2013-09-09 23:42:00,75.1,71.6,29.99,N/A,-737280,0.0,-999.0,89,0.00,,,0.00,0,Wunderground v.1.15,2013-09-10 04:42:00,
2013-09-09 23:47:00,75.0,71.5,29.99,N/A,-737280,0.0,-999.0,89,0.00,,,0.00,0,Wunderground v.1.15,2013-09-10 04:47:00,
2013-09-09 23:52:00,74.9,71.4,29.99,N/A,-737280,0.0,-999.0,89,0.00,,,0.00,0,Wunderground v.1.15,2013-09-10 04:52:00,
2013-09-09 23:57:00,74.8,71.3,29.99,N/A,-737280,0.0,-999.0,89,0.00,,,0.00,0,Wunderground v.1.15,2013-09-10 04:57:00,